Погода в Анди

Россия / Республика Дагестан     42°47′05″N   46°15′45″E
темп.,
°C
ветер,
м/с
пор.,
м/с
влажн.,
%
обл.,
%
осадки,
мм/ч
давл.,
гПа
погр.,
м
16 апреля, пт
пт1600:00+5ююв117368 0.0 101811
03:00+4в007750 0.0 101910
06:00+3юз117537 0.0 102125
09:00+7вюв126211 0.0 1019668
12:00+11в124269 0.1 10171719
15:00+11ссв225187 0.8 10171367
18:00+9св116583 1.8 1018272
21:00+6ююв11785 2.0 102025
17 апреля, сб
сб1700:00+6юз22750 0.0 102018
03:00+5ююз22745 0.0 102021
06:00+5ю227494 0.0 102033
09:00+10ю125188 0.0 1017456
12:00+15с1338100 0.0 10161621
15:00+13ссз4361100 0.0 1016716
18:00+9ссз338191 0.0 1019396
21:00+7с2285100 0.1 1021293
18 апреля, вс
вс1800:00+7с2187100 0.1 1020177
03:00+7юв228770 0.1 1019262
06:00+7в1290100 0.0 1020131
09:00+9юв2278100 0.0 1018519
12:00+14в1256100 0.0 10151057
15:00+15ссв235649 0.3 10131318
18:00+12в1269100 0.2 1014190
21:00+10сз2282100 0.9 101760
19 апреля, пн
пн1900:00+8ссз1290100 1.5 101870
03:00+8зсз0187100 1.6 101810
06:00+8в0079100 0.0 101811
09:00+12вюв225974 0.0 1017697
12:00+16св22455 0.0 10151278
15:00+16всв2351100 0.4 10131420
18:00+14в2266100 0.5 1015411
21:00+10ююв118192 0.6 101728
20 апреля, вт
вт2000:00+9ююз227699 0.0 101630
03:00+9ююз227173 0.0 101428
06:00+10ююз2268100 0.0 101332
09:00+14юв2254100 0.0 1011214
12:00+18ююв234453 0.0 1008496
15:00+22юз3627100 0.0 10051824
18:00+17юз4444100 0.0 100647
21:00+11ююз3386100 1.9 1012284